Theta_e
348 350 351 350 349 347 344 343 342 342 342 342 344 345 348 351 351 350 352 351 348 346 346 346 347 352 352 349 347 346 346 347 350 353 352 351 351 351 351 351 352 352 352 351 351 350 349 348 348 348 347 348 350 349 348 347 348 348 348 348 349 350 350 350 351 351 351 352 350 348 345 343 342 342 343 344 344 345 345 345 344 345 346 345 344
347 348 350 348 348 348 347 346 345 346 346 346 347 348 350 351 350 349 349 348 347 346 346 346 345 347 349 347 347 346 347 346 348 352 352 352 352 352 352 351 352 352 351 350 350 350 349 348 348 348 347 347 349 349 349 347 347 347 347 348 348 349 349 350 350 350 351 351 352 351 350 348 346 344 343 343 343 343 343 345 345 346 346 346 345
347 348 349 349 349 348 348 348 348 347 348 349 348 350 350 351 350 347 347 346 346 346 345 345 345 346 346 346 346 345 345 346 346 350 352 351 351 353 353 353 354 353 352 352 351 349 348 347 348 348 348 348 348 348 348 347 348 347 346 346 346 348 349 349 349 349 349 351 351 351 351 351 350 348 347 346 345 344 344 345 345 346 346 345 344
348 349 350 350 350 349 349 348 347 346 347 348 348 348 349 350 349 346 346 346 346 346 345 344 343 344 344 345 346 345 345 348 349 351 351 350 351 352 353 353 353 351 351 353 353 349 347 347 348 348 349 350 350 348 348 348 348 347 347 346 346 347 348 349 349 348 349 350 350 350 351 351 351 350 349 348 348 347 347 346 346 346 346 345 343
348 350 350 351 351 350 350 350 348 348 347 347 348 348 349 348 348 347 348 346 345 345 344 343 343 343 344 344 346 346 346 350 352 353 352 350 350 350 350 351 350 349 350 353 353 350 348 346 347 348 349 351 351 350 349 348 348 349 348 347 347 346 347 348 349 348 348 348 349 349 350 350 350 350 349 349 349 348 348 349 348 347 347 346 344
350 351 352 351 351 351 351 351 350 348 347 347 347 348 348 347 347 347 348 347 345 344 343 343 343 345 345 345 347 348 348 351 353 354 353 352 350 349 349 350 349 349 350 351 353 351 349 347 347 348 350 351 351 351 350 349 349 348 348 348 348 347 347 348 349 349 349 348 348 349 349 348 348 349 349 349 349 348 349 349 349 349 348 348 346
349 349 350 349 349 349 349 349 347 345 346 347 346 347 348 347 347 347 348 348 346 344 344 344 346 346 345 345 347 347 350 354 355 355 354 351 350 349 349 351 349 348 348 350 351 350 349 349 348 349 350 351 351 350 349 348 349 348 348 348 348 348 347 348 348 348 349 349 349 349 349 349 348 348 348 348 348 348 349 349 349 348 348 348 348
350 350 351 352 351 350 347 346 346 345 346 346 346 346 348 348 349 348 348 348 347 346 345 345 346 346 345 346 348 349 352 354 356 355 353 350 350 349 349 352 352 349 348 350 351 350 350 350 350 351 352 351 350 350 348 348 350 350 348 348 348 348 347 347 348 348 349 349 349 349 349 349 348 348 347 347 347 347 348 347 348 348 348 348 348
352 353 354 353 350 348 345 345 346 346 346 345 345 346 347 348 348 349 349 348 347 346 345 346 347 346 346 347 348 350 352 353 354 354 353 352 352 352 352 353 353 352 352 351 351 352 351 351 351 351 352 350 350 350 348 348 350 351 350 350 349 348 347 347 347 348 348 347 348 348 349 349 349 349 348 347 347 347 347 347 347 348 348 347 347
353 354 355 352 349 347 346 346 345 346 346 345 345 348 349 349 349 350 350 349 347 346 346 346 347 346 345 347 349 351 352 352 353 353 354 354 354 354 354 354 354 354 353 353 352 352 352 351 351 351 351 351 351 350 349 349 350 350 350 351 350 350 349 348 348 348 348 348 348 347 348 349 349 350 349 348 348 347 347 347 347 347 348 347 346
353 354 353 349 348 348 349 348 347 347 348 346 349 350 351 350 351 352 350 348 346 346 347 346 347 346 345 346 348 350 351 352 353 353 353 354 353 353 353 354 354 353 353 353 352 351 351 351 351 351 351 350 351 350 349 349 350 350 350 350 350 351 350 349 348 348 349 349 349 348 348 348 348 349 349 348 348 348 347 346 347 347 347 346 345
351 351 348 347 348 349 350 350 349 350 350 350 350 352 352 351 351 352 351 349 348 347 347 346 347 346 345 347 348 349 350 352 353 352 351 352 352 352 353 354 355 354 353 352 352 352 351 351 351 350 351 351 351 352 351 351 351 351 350 350 350 351 351 350 348 349 349 349 349 349 349 348 348 349 349 349 348 347 346 345 346 347 347 347 346
346 343 342 345 348 349 351 351 351 350 352 351 351 352 353 352 353 351 349 350 349 348 347 346 347 346 347 347 346 347 349 351 351 349 349 351 354 355 355 356 356 355 352 351 353 352 351 351 351 350 350 351 351 351 351 351 351 350 350 350 350 350 351 351 350 349 350 349 349 349 349 348 348 348 348 348 348 347 347 345 345 346 347 347 346
342 338 337 342 347 350 350 351 352 351 352 352 353 354 353 353 351 349 347 348 349 348 347 347 346 346 347 349 352 350 348 348 348 347 349 351 355 357 356 356 356 352 350 351 352 352 351 351 351 351 351 350 349 350 351 350 350 350 350 349 349 349 349 350 350 350 350 350 349 350 349 349 348 348 348 349 348 347 347 346 346 346 346 346 346
344 340 338 340 343 347 350 351 352 352 352 353 353 353 353 352 350 349 349 349 349 347 347 347 346 346 348 354 361 358 354 351 346 347 350 352 354 355 354 355 355 352 350 351 351 350 351 351 351 350 350 349 349 350 351 351 350 349 348 348 348 349 349 349 349 350 351 351 351 350 350 349 349 348 348 349 349 348 348 348 347 346 346 345 346
346 344 342 341 340 343 348 351 352 351 351 351 352 352 351 351 347 347 349 347 347 346 348 347 345 348 352 358 357 356 362 357 349 349 351 352 354 355 355 355 354 353 351 351 351 350 351 350 351 350 350 349 349 350 351 351 350 349 348 347 347 348 349 349 350 350 350 351 351 350 350 350 350 348 349 349 349 348 349 349 348 347 346 346 346
347 347 345 344 342 341 345 349 351 351 351 350 351 351 351 350 349 349 350 349 347 347 348 347 346 348 351 354 352 356 366 358 351 355 352 350 354 354 355 354 354 354 354 353 353 351 350 350 351 351 350 350 350 350 349 350 352 351 349 348 347 347 347 348 350 351 350 351 350 349 350 350 350 349 349 348 348 349 349 349 349 348 347 347 347
348 348 347 347 345 344 344 348 350 351 352 352 352 352 353 353 352 352 351 350 349 347 347 347 349 349 349 351 350 352 358 354 356 361 353 351 354 353 353 352 352 353 354 355 354 352 351 350 351 351 351 351 351 350 350 350 351 351 351 350 349 346 345 345 347 350 351 350 350 350 351 351 350 350 350 350 349 350 350 350 350 349 348 347 347
349 349 349 348 347 347 348 349 351 351 352 352 353 353 353 353 352 352 351 351 349 349 350 349 349 350 350 352 351 350 351 353 360 362 359 359 356 351 351 351 351 351 352 355 355 353 351 350 351 351 351 351 351 351 350 350 350 351 351 351 350 347 346 344 343 345 349 351 351 350 351 351 351 351 350 350 350 350 350 349 349 349 348 348 348
350 350 352 351 351 351 352 352 352 351 350 351 353 353 353 353 353 352 351 351 351 351 351 350 349 349 350 350 350 351 352 353 355 356 359 365 361 355 351 349 350 349 351 354 354 353 352 351 351 351 352 350 351 351 349 349 349 350 350 350 349 348 347 346 342 340 344 349 351 350 351 351 350 350 350 350 350 349 350 349 349 349 348 349 349
350 350 353 353 353 353 353 353 352 352 351 351 353 354 354 353 353 353 351 351 353 352 352 351 350 351 352 351 350 352 353 354 353 352 356 360 365 365 354 348 351 350 350 354 354 353 353 352 352 351 351 350 349 350 349 349 349 349 349 349 348 348 347 346 346 342 340 345 350 351 351 351 350 350 350 349 349 349 349 349 349 349 349 349 349
350 351 353 354 353 352 352 353 353 352 352 351 352 353 354 353 352 352 352 352 353 353 352 352 352 352 352 352 352 353 354 354 353 352 352 351 357 360 350 348 355 352 349 354 354 354 354 353 352 351 351 350 350 351 349 350 349 348 350 348 348 349 345 340 342 343 341 341 347 350 351 351 351 350 349 349 349 349 349 350 350 349 350 349 349
351 353 354 354 353 352 352 353 352 351 351 351 351 352 353 354 353 352 352 353 353 354 353 353 352 351 352 352 352 353 352 352 351 351 351 351 356 357 348 347 352 349 348 353 353 354 354 354 354 352 350 351 351 352 350 349 349 350 349 348 349 348 339 332 335 340 340 340 345 349 350 350 350 350 349 349 349 349 350 350 350 350 349 349 349
353 354 354 353 351 350 351 352 353 352 351 351 351 351 353 354 354 353 352 352 353 354 353 352 351 351 352 352 352 353 353 352 352 352 351 350 354 354 347 347 351 349 350 353 353 354 355 354 355 354 352 352 352 352 351 350 350 350 349 349 346 339 330 330 338 341 342 342 345 348 350 349 349 350 349 349 349 349 349 349 349 349 349 349 349
353 352 352 351 350 350 351 352 352 352 351 352 353 353 353 355 354 353 352 351 352 352 351 350 350 351 352 352 352 353 353 352 351 352 351 349 348 349 347 347 350 350 351 354 354 355 355 355 355 354 353 353 353 353 352 351 351 350 350 348 338 329 328 336 345 345 343 343 344 347 349 349 350 350 349 349 349 349 349 349 349 349 349 349 349
351 350 351 351 351 351 351 351 351 351 352 352 354 354 354 355 354 354 353 352 352 352 351 351 351 350 350 351 352 352 353 353 352 351 350 348 348 348 348 350 350 350 351 356 357 356 356 355 355 356 355 355 354 354 353 353 353 352 351 347 332 327 331 339 346 347 343 342 343 345 347 349 350 350 350 349 349 349 349 349 349 349 348 348 348
351 351 351 351 352 351 351 352 352 351 351 352 354 354 354 354 354 354 352 352 352 352 353 353 352 351 351 351 352 352 352 353 352 352 350 349 348 347 349 353 357 356 353 353 354 354 354 354 354 355 355 355 355 354 354 354 354 354 353 348 335 328 332 339 345 348 347 344 343 343 347 350 350 351 350 350 350 349 349 349 348 348 348 348 348
350 352 352 352 351 351 352 353 353 353 353 353 353 354 353 353 354 354 352 351 352 354 354 354 353 353 352 351 352 351 351 352 352 352 351 349 348 347 347 350 356 362 361 359 358 354 351 352 354 355 355 356 355 355 355 355 354 354 353 349 342 333 331 337 343 345 347 346 345 346 349 350 351 350 350 350 350 350 349 349 348 349 349 348 348
351 352 352 352 352 352 353 353 353 352 352 353 353 354 354 354 353 353 352 352 353 355 354 354 354 354 354 353 352 352 352 352 353 353 351 350 348 348 348 346 349 359 364 368 366 355 349 351 353 354 355 355 355 355 355 355 355 355 353 350 348 339 330 334 340 342 345 346 346 348 349 350 350 350 350 350 350 349 348 349 349 349 349 349 348
352 351 350 352 353 354 353 353 352 351 351 351 352 354 354 353 353 353 354 355 355 356 355 354 354 355 354 354 353 352 353 353 353 353 352 350 350 348 348 347 347 350 353 359 362 353 348 351 351 352 353 354 355 356 355 355 354 355 353 349 350 346 334 331 336 340 343 345 346 347 348 348 349 349 349 350 350 349 348 348 349 349 349 349 348
351 350 349 350 353 353 353 352 352 352 351 351 351 353 354 354 354 355 356 357 357 356 354 353 353 354 354 353 352 351 353 353 353 353 353 352 351 350 350 348 348 348 347 350 356 354 349 350 349 350 353 353 355 356 356 356 355 356 354 349 350 351 342 334 334 336 340 343 345 346 346 347 348 348 348 348 348 348 348 348 347 348 348 348 347
350 349 349 351 352 352 353 353 353 353 352 352 351 352 354 355 355 356 357 357 357 355 353 353 353 354 354 353 353 353 353 354 352 353 353 353 353 352 351 350 348 348 347 347 351 352 350 349 349 350 352 353 355 356 356 356 356 357 355 350 350 352 349 343 339 335 335 339 341 342 344 345 347 347 346 346 347 347 346 346 346 346 346 345 346
350 349 349 350 352 353 353 354 355 355 353 353 352 354 354 355 355 356 357 357 356 354 354 353 353 354 355 353 354 354 354 354 352 353 354 354 354 352 351 351 350 349 349 349 350 349 348 349 350 351 352 354 355 356 356 357 356 356 355 350 349 352 352 349 345 339 335 335 337 339 342 344 345 346 346 346 346 346 346 345 346 345 344 344 344
351 351 351 350 351 353 353 355 356 356 355 354 353 354 354 354 354 355 356 355 355 355 355 355 355 354 355 354 354 355 354 354 353 354 354 354 354 353 351 352 352 350 349 349 349 349 348 348 349 350 351 353 355 355 356 356 356 356 355 352 350 351 352 351 348 342 337 335 336 339 342 343 345 346 345 344 344 344 345 345 344 343 342 342 342
352 352 352 351 352 354 354 356 356 356 356 354 352 353 352 352 353 353 354 354 354 356 356 356 355 354 355 355 355 355 354 355 354 354 354 354 354 353 351 352 353 353 351 349 349 349 348 348 350 350 350 352 354 355 355 356 356 356 355 352 350 351 353 353 349 343 337 336 336 338 341 343 344 346 344 343 342 341 341 342 342 340 339 338 338
352 352 352 354 355 356 356 356 357 356 355 354 353 353 352 352 351 351 352 353 354 355 356 356 355 355 355 355 355 354 355 355 354 352 352 354 353 352 352 354 354 354 353 351 351 351 349 349 350 352 353 353 355 355 355 357 357 357 355 352 351 351 353 353 350 344 338 336 337 338 338 339 341 343 344 343 342 339 338 339 339 339 339 339 338
352 353 354 355 356 357 356 355 355 355 354 354 353 353 353 352 352 351 352 352 354 355 357 356 355 355 355 355 354 355 355 354 352 351 351 353 353 353 354 356 356 355 354 352 352 351 351 350 350 353 355 357 357 356 357 357 357 356 355 352 350 351 351 352 351 346 338 335 337 339 339 337 337 339 341 341 340 338 338 339 339 339 341 342 340
355 356 356 356 356 356 356 355 354 353 353 353 353 352 352 353 352 352 353 353 354 355 356 355 355 354 354 354 354 355 354 354 351 350 352 352 353 354 356 357 356 356 355 353 352 352 351 351 351 354 356 357 358 357 355 356 355 355 353 350 349 351 350 350 350 347 342 337 336 339 342 341 338 337 338 339 338 338 339 340 340 340 341 341 341
356 356 356 356 355 355 355 354 353 353 353 353 353 352 353 354 353 353 354 354 354 355 355 355 354 355 355 355 355 355 354 353 350 350 351 351 352 354 356 357 357 356 356 354 353 353 352 352 352 354 356 357 357 354 352 353 353 352 351 349 350 350 349 349 349 348 347 343 339 338 340 342 341 338 337 337 337 338 338 340 339 340 340 340 340
355 354 355 356 356 355 354 354 353 353 352 352 352 353 354 355 355 354 354 354 355 355 355 354 354 355 356 355 355 355 354 352 351 350 350 350 351 353 355 357 357 357 356 355 354 353 354 355 353 354 356 353 350 348 349 350 351 351 350 349 349 350 349 349 350 350 349 348 345 342 339 340 341 339 338 336 337 337 338 339 339 339 340 341 341
354 354 355 355 356 355 353 353 352 352 352 353 353 353 354 355 354 352 352 353 354 355 354 354 354 355 356 356 355 354 355 354 354 353 352 352 354 355 356 357 358 358 357 356 355 354 355 356 354 355 356 350 346 346 347 348 350 350 350 349 349 349 349 349 349 350 350 349 348 343 339 341 342 342 340 339 339 339 339 341 341 342 343 343 343
354 355 355 354 354 353 352 352 351 351 353 353 354 354 355 355 354 353 352 353 354 355 355 354 355 355 355 355 355 354 356 356 356 356 357 356 357 357 357 358 357 356 355 356 356 355 355 356 355 356 357 352 348 348 347 347 348 347 348 348 348 347 347 348 348 349 349 349 347 344 342 343 344 344 343 342 342 341 342 342 343 344 344 344 343
354 353 354 353 352 352 351 351 350 351 352 353 355 355 355 355 354 355 354 354 355 355 354 354 354 354 354 354 355 354 355 356 356 357 358 357 357 356 356 358 357 355 355 355 357 357 356 355 355 356 357 355 351 349 347 347 346 347 347 348 347 346 346 347 348 348 348 348 347 345 345 346 346 345 344 344 343 343 342 343 344 343 343 342 341
352 351 351 351 351 351 351 350 350 351 351 354 355 355 354 354 354 355 355 355 355 353 353 354 354 354 354 354 354 354 354 355 356 356 357 356 357 356 356 356 356 356 355 355 355 355 356 356 355 355 356 355 352 349 348 348 348 347 347 348 348 348 346 346 347 347 348 348 347 345 346 346 346 345 344 343 343 343 343 343 342 342 341 340 340
350 350 351 351 351 352 351 350 351 352 352 354 354 354 354 353 354 355 354 354 353 352 351 352 352 353 354 354 354 354 354 355 355 355 355 356 357 356 356 356 356 355 356 354 354 355 355 355 355 355 355 354 352 350 349 350 349 348 348 348 349 349 346 346 347 348 348 347 347 345 344 345 346 344 342 342 342 341 341 341 341 341 341 340 339
350 350 350 350 351 352 351 349 350 353 353 353 353 352 353 353 353 352 352 351 351 350 349 349 349 350 351 352 354 354 353 354 354 354 354 354 355 354 353 354 355 355 354 354 354 353 354 354 353 353 354 353 353 352 350 350 350 350 349 349 349 349 348 348 349 349 347 348 348 346 344 344 345 343 341 341 341 340 339 340 340 340 340 339 338
351 351 351 350 352 352 351 350 351 353 353 352 352 351 350 349 348 348 348 347 347 347 347 347 347 348 348 350 353 353 352 352 353 353 353 354 354 353 352 352 353 353 353 353 353 352 353 352 352 352 353 354 353 352 350 349 350 350 349 348 348 348 349 348 347 346 346 346 347 346 344 344 344 342 340 340 339 338 337 337 337 338 338 338 337
350 350 350 350 351 352 353 351 352 352 352 350 349 347 346 344 344 343 343 342 342 343 344 345 346 347 349 352 354 353 351 351 351 351 352 353 353 351 350 350 350 350 351 352 352 352 352 353 353 353 352 352 352 352 351 351 351 350 349 348 348 347 347 345 344 344 345 345 345 346 345 343 342 341 338 335 334 334 335 335 335 335 336 336 335
346 344 345 345 347 350 352 351 351 351 350 348 346 344 343 342 341 341 340 339 339 339 339 342 344 346 348 351 353 352 352 351 349 349 350 350 349 347 346 346 346 346 347 348 349 351 352 352 352 352 351 351 351 351 351 350 350 349 347 347 347 346 346 343 342 343 344 344 345 346 345 343 341 339 334 330 330 331 332 332 334 333 333 333 333
343 342 342 342 343 346 349 350 351 351 349 347 344 342 341 341 339 339 338 337 335 333 335 337 341 344 346 346 347 348 350 350 348 348 347 347 346 345 343 342 341 340 341 343 345 347 348 348 349 350 351 351 351 351 351 350 349 348 346 346 346 346 345 343 342 342 342 343 343 344 345 342 337 334 331 326 325 327 328 329 330 330 329 329 329
343 341 341 341 342 343 345 347 348 347 346 344 342 340 340 338 337 336 335 333 333 335 337 339 341 343 344 343 343 344 345 345 344 344 344 343 343 342 342 341 340 340 340 341 342 344 343 344 346 348 349 349 349 349 350 349 349 348 348 347 347 346 345 344 343 341 341 342 343 344 345 340 334 332 329 325 323 323 323 324 324 323 323 325 325
Wind_Speed
15 14 14 13 12 12 12 11 11 10 10 11 11 10 10 10 9 8 8 9 8 7 7 7 8 8 10 11 10 11 12 13 12 12 11 11 12 13 13 13 14 14 16 17 16 16 16 16 17 18 19 19 18 18 18 18 18 18 18 18 18 18 18 18 18 19 19 18 18 17 16 16 17 18 18 18 18 17 16 14 13 13 13 14 14
14 14 14 14 12 12 12 11 10 10 11 12 12 11 10 9 8 8 8 9 7 7 7 7 7 8 9 7 8 10 12 13 12 11 11 12 12 12 12 12 12 13 13 15 17 17 16 16 17 18 19 19 19 18 19 19 20 20 19 19 19 18 19 19 19 19 19 19 19 19 18 18 17 17 17 17 18 18 17 15 15 15 16 16 15
14 14 14 14 13 13 13 12 11 11 12 12 11 11 10 8 8 7 7 7 6 6 7 7 7 7 7 3 4 8 10 10 10 9 10 11 11 12 11 10 11 12 12 14 17 17 17 16 17 18 18 19 20 20 20 20 20 21 21 20 20 19 19 19 19 19 20 20 20 20 20 19 19 18 17 17 17 17 17 17 16 17 17 17 16
14 14 14 13 12 13 13 13 13 12 13 13 11 10 9 8 8 8 6 6 6 6 7 7 8 8 8 4 2 5 8 8 8 8 9 10 10 11 11 9 10 11 12 14 16 17 17 17 17 18 19 19 20 20 20 20 20 21 21 21 21 21 20 20 20 20 20 21 21 21 21 21 20 20 20 19 18 18 18 18 18 18 18 18 16
16 15 14 12 12 14 15 17 16 14 14 14 12 11 9 8 8 8 5 6 6 5 6 8 8 8 8 5 1 3 4 7 8 7 8 9 8 9 8 8 9 10 11 14 14 15 17 17 18 18 19 19 20 20 20 20 20 21 22 22 22 22 22 21 21 21 21 21 21 21 22 22 21 21 21 21 20 19 19 18 19 19 19 18 17
16 14 14 13 14 16 18 19 17 15 15 14 13 11 8 7 7 7 6 6 6 5 5 7 7 7 7 7 3 2 3 3 6 5 5 7 7 8 6 5 8 11 13 14 12 13 16 17 17 17 18 19 19 18 19 20 20 21 22 23 23 23 23 23 22 22 22 22 22 22 22 22 22 22 22 21 21 21 20 19 19 19 19 18 17
15 14 14 14 14 15 17 19 14 9 10 10 11 10 8 7 7 7 6 6 6 5 5 6 7 7 7 6 5 2 2 2 4 4 3 4 6 7 5 4 6 10 13 13 12 11 13 16 16 17 18 19 19 19 19 19 20 21 21 23 23 23 24 24 23 23 23 22 22 22 23 23 22 22 22 22 22 21 21 20 20 20 19 18 17
13 13 13 12 13 12 12 12 7 5 6 7 8 8 7 8 7 6 6 6 6 5 5 6 8 9 7 6 6 3 2 2 3 3 3 2 1 3 4 5 5 8 10 11 11 10 11 13 15 17 18 18 18 19 19 19 20 20 21 22 22 22 23 24 23 23 23 23 23 23 22 23 22 22 23 23 23 22 22 21 21 21 20 19 17
12 11 11 12 13 11 7 7 7 6 6 6 6 5 5 7 6 4 5 5 5 5 5 7 9 9 7 6 6 4 3 4 2 3 3 2 2 1 2 4 5 6 7 8 10 11 11 11 13 15 16 16 17 17 17 18 20 19 20 21 21 22 22 23 24 24 24 24 24 24 23 23 22 22 22 22 22 23 23 22 22 21 21 20 19
12 11 12 13 12 7 3 4 7 7 6 6 6 3 4 5 4 3 3 3 4 4 5 7 10 10 9 7 7 4 3 5 4 5 4 3 3 2 3 1 2 3 4 5 8 10 11 11 12 13 14 15 15 16 16 17 18 18 19 20 21 21 22 22 24 24 24 24 25 24 24 24 23 23 22 22 22 22 22 22 22 22 21 20 19
14 14 15 15 10 5 2 3 7 7 7 6 4 2 2 3 2 1 2 3 3 4 5 8 11 11 10 9 9 7 5 4 4 5 5 4 4 4 4 4 3 3 4 4 6 8 10 11 12 13 13 14 14 15 16 16 16 18 19 20 21 21 21 22 23 23 24 24 25 24 25 25 25 24 23 23 23 22 22 23 23 23 22 21 20
17 16 17 16 11 6 3 4 7 7 6 6 5 3 2 2 1 2 4 5 5 6 7 9 12 12 11 11 11 10 8 6 5 6 5 4 5 5 4 4 5 6 5 5 6 6 8 10 12 13 13 13 13 13 14 14 15 17 18 19 20 20 21 21 22 23 23 24 25 25 25 25 25 25 24 23 23 23 23 23 23 23 22 21 20
20 18 17 17 14 9 5 5 6 6 5 6 6 5 4 4 4 5 7 7 7 8 8 9 10 10 9 11 12 10 9 8 7 7 5 4 5 5 5 6 7 8 7 5 6 6 6 8 11 12 12 12 12 13 13 13 14 16 17 18 19 20 20 21 22 22 22 23 24 25 25 26 26 26 25 24 24 23 23 23 24 23 23 22 21
18 17 16 18 17 12 9 6 5 5 6 6 6 6 7 7 7 6 7 7 8 7 7 7 6 5 6 8 10 9 8 7 6 6 4 3 3 4 5 7 8 8 4 3 5 5 5 6 8 11 11 10 11 12 12 13 14 15 16 18 19 20 20 21 21 21 22 22 23 24 25 25 26 26 25 25 25 24 23 23 24 23 23 23 22
16 16 16 18 18 16 13 10 7 6 6 7 8 9 10 10 8 7 7 8 9 8 7 6 5 4 3 3 4 5 6 5 5 5 4 2 3 4 5 7 8 6 2 2 2 3 4 5 6 9 10 10 10 11 11 11 12 13 14 14 15 17 18 19 20 20 21 21 21 22 23 24 25 25 25 25 25 24 23 23 23 24 24 23 23
15 14 15 16 18 18 16 13 10 8 7 8 9 10 10 10 8 8 9 10 10 9 7 7 8 5 1 1 0 2 3 3 5 5 3 3 5 5 5 5 6 4 2 2 2 2 4 5 6 8 10 11 10 10 10 10 9 9 10 10 11 13 15 16 18 19 20 20 20 21 22 22 23 24 24 25 25 25 24 23 23 24 24 23 23
16 14 14 15 16 18 17 15 12 9 9 9 9 9 9 10 9 9 11 11 11 10 8 8 9 9 5 3 1 1 2 2 4 4 3 4 6 5 6 5 5 4 2 4 4 5 5 5 6 8 10 11 11 11 11 10 9 8 8 8 8 10 12 14 15 16 17 18 20 21 21 21 22 22 23 24 25 25 25 24 24 24 24 23 23
16 14 13 14 15 16 16 15 13 11 10 9 10 9 9 10 9 10 10 9 9 9 8 7 8 10 11 9 6 5 4 1 1 2 3 4 4 5 7 6 6 5 4 4 4 5 6 5 5 6 8 9 10 10 11 12 11 9 8 8 7 7 9 10 12 14 15 16 17 19 20 20 20 20 21 22 22 23 24 24 24 24 24 23 23
17 15 14 13 14 14 13 13 13 13 12 11 10 10 11 11 10 11 9 6 6 6 6 6 6 8 11 12 12 11 7 2 1 1 3 3 3 5 6 5 7 8 6 6 5 4 5 5 5 5 7 8 9 10 10 12 12 11 10 9 8 8 9 9 10 12 13 14 15 17 18 18 18 18 19 19 20 21 22 23 23 23 23 24 23
18 15 14 14 14 13 13 14 14 14 14 14 12 11 11 12 12 12 10 7 5 5 5 5 6 7 8 10 11 11 8 5 4 2 1 1 4 6 5 7 9 8 6 6 5 2 4 5 5 5 6 8 9 9 9 10 11 11 10 10 9 9 10 11 11 11 13 14 14 15 16 17 17 17 17 18 18 19 20 21 22 22 23 23 22
18 15 15 14 14 14 14 15 17 15 14 15 15 13 12 12 12 11 11 8 6 6 6 6 8 8 9 10 10 9 8 5 4 3 1 1 3 3 5 8 8 7 6 6 5 3 2 3 5 6 6 6 7 8 8 8 9 8 8 9 9 10 12 12 12 12 12 13 13 13 14 15 16 15 16 16 17 18 18 19 20 21 21 21 21
18 16 16 15 15 16 16 17 18 16 14 14 15 15 13 11 10 10 10 9 8 7 7 8 10 10 10 10 9 8 8 5 4 5 2 1 3 4 6 7 6 7 8 6 5 5 4 3 3 5 6 6 6 7 8 8 8 7 7 8 9 11 13 12 11 11 12 13 13 13 13 14 14 14 14 15 15 16 17 17 18 18 19 19 19
19 18 18 18 18 17 16 17 18 16 14 13 14 16 14 11 9 9 9 9 9 9 9 10 11 13 13 11 10 9 9 9 9 8 6 4 2 4 7 6 6 8 7 5 6 6 5 4 3 4 5 6 6 6 7 9 9 8 7 8 10 13 13 10 9 9 10 12 13 12 12 12 13 13 13 13 13 14 14 15 16 17 18 18 17
20 20 20 19 19 17 15 16 18 16 14 13 13 14 15 12 10 10 10 10 10 9 10 11 11 13 13 13 12 11 12 13 14 13 10 8 6 5 6 5 5 6 6 7 9 8 7 6 5 4 5 6 7 6 7 8 9 8 7 9 11 12 10 7 6 5 7 10 11 11 12 11 12 12 12 12 12 12 12 13 14 15 15 16 16
21 21 20 19 18 16 15 15 16 16 15 15 14 13 14 15 14 13 12 11 11 11 11 12 11 11 12 13 13 13 12 13 14 13 12 10 8 6 5 4 4 4 5 7 8 8 9 8 7 6 5 6 7 7 8 8 7 7 7 9 10 8 6 5 5 4 5 8 10 10 10 10 11 11 11 11 11 11 12 12 12 12 13 13 14
20 19 19 18 16 16 16 16 15 16 16 16 15 14 15 17 17 16 15 14 13 12 13 13 12 11 11 12 13 14 13 13 13 13 13 11 9 8 5 2 4 6 4 5 7 8 9 9 8 8 7 7 7 8 8 8 7 7 7 8 7 5 4 5 5 4 4 6 9 10 9 10 10 11 11 11 11 11 11 11 11 11 11 12 12
18 17 16 17 16 16 16 16 16 16 17 16 16 16 17 18 18 18 17 16 14 14 14 13 13 13 13 13 14 15 15 15 15 14 13 14 13 12 8 3 3 4 3 4 7 10 12 11 10 10 10 8 7 8 7 7 7 7 6 6 5 3 3 5 6 5 3 4 7 9 9 9 10 10 10 10 11 11 10 11 11 11 11 11 11
18 18 17 17 17 17 16 16 16 16 17 17 17 18 19 19 19 19 18 16 15 14 14 14 14 14 14 14 15 16 16 15 15 15 14 15 16 15 13 8 4 2 2 3 5 9 11 12 11 10 11 10 8 7 7 7 7 7 6 6 4 2 2 5 6 6 6 5 6 8 9 9 9 9 9 10 11 11 10 10 10 10 10 10 10
20 19 18 17 17 18 17 16 16 16 18 18 18 18 19 20 19 19 18 16 15 15 15 15 15 15 15 15 14 15 15 14 14 14 12 13 16 17 17 15 10 4 2 2 4 6 7 9 10 8 9 10 9 8 8 7 8 8 6 4 4 3 2 4 5 6 7 7 7 9 9 10 10 9 9 9 10 10 11 11 10 10 10 11 11
20 19 19 18 18 18 17 17 16 16 17 17 17 18 19 19 18 17 17 16 16 16 16 16 16 16 16 15 13 14 13 13 13 12 10 11 14 17 20 21 18 11 7 4 5 7 7 8 9 7 8 10 10 9 9 9 9 9 7 4 3 2 3 3 5 6 7 8 8 9 9 10 11 11 10 11 10 10 11 11 11 11 11 11 11
21 20 20 19 19 19 18 17 16 16 16 16 16 17 17 18 17 16 16 16 17 17 16 15 16 16 16 15 13 13 12 12 12 11 10 10 11 13 16 20 21 20 17 10 4 7 9 9 9 8 8 10 10 10 11 10 10 10 8 6 4 2 2 2 4 5 7 8 9 9 9 9 9 10 11 11 10 10 11 11 11 11 11 11 10
22 21 21 20 20 19 19 18 17 17 16 17 17 17 17 17 16 15 16 17 18 17 16 15 15 15 15 14 13 12 11 13 13 12 11 10 11 12 12 14 17 21 24 17 7 8 14 13 9 9 9 10 11 11 12 12 11 11 11 9 8 6 4 3 4 5 6 7 9 9 10 10 9 9 8 8 9 9 8 9 9 10 10 10 9
22 22 22 21 21 20 19 19 18 17 17 18 18 18 18 18 17 16 17 17 18 17 15 15 14 14 14 14 14 13 13 14 15 14 13 12 12 13 12 11 11 14 20 21 13 10 15 15 11 10 10 11 12 12 13 14 13 13 12 11 11 10 7 6 5 6 7 8 9 10 11 11 10 9 9 10 10 9 9 9 10 10 10 9 9
23 23 22 22 21 21 20 20 19 18 17 18 19 19 19 19 18 18 18 17 17 17 16 15 15 16 16 16 15 14 14 14 15 15 15 14 13 13 13 11 9 8 9 15 17 13 13 15 14 13 12 12 13 14 15 16 15 14 15 14 14 13 11 9 8 7 8 8 9 10 12 12 11 12 13 13 12 11 13 13 13 12 12 11 12
23 23 22 21 20 20 20 20 20 19 18 18 18 20 21 21 20 19 18 18 17 17 17 16 16 16 16 16 15 14 13 14 15 15 15 15 15 14 13 11 10 9 7 8 13 15 15 15 14 15 14 13 14 15 16 17 16 16 16 16 15 14 13 11 10 10 9 9 10 11 13 13 14 15 15 14 14 13 15 16 14 13 13 13 13
22 22 21 20 20 20 21 22 21 21 20 18 17 19 21 21 20 20 18 17 17 17 16 16 16 15 15 16 15 14 14 15 17 16 15 16 16 15 13 11 10 10 8 6 7 10 13 14 14 15 15 14 15 16 16 17 16 17 17 16 16 15 14 14 13 12 12 12 12 12 13 14 16 17 16 16 15 15 16 16 15 15 14 13 13
21 20 20 22 22 23 23 23 23 22 21 20 18 19 21 20 19 18 16 16 16 16 17 17 17 16 16 17 16 14 15 16 17 16 15 16 15 12 11 10 9 8 8 7 6 6 7 10 12 14 14 15 15 15 16 17 16 17 17 17 16 16 15 16 15 14 15 15 14 13 13 14 16 17 18 17 16 16 16 16 15 15 15 14 15
19 20 20 21 23 24 24 23 23 22 20 19 19 20 20 19 18 16 15 16 16 17 17 17 16 16 17 17 16 14 15 16 16 15 15 15 14 12 11 9 8 8 8 8 8 7 6 7 9 12 14 16 16 13 13 16 17 17 16 15 16 16 16 18 19 17 16 17 17 15 14 14 15 17 17 18 17 16 17 16 16 16 17 17 17
20 21 21 20 20 21 22 22 22 21 19 17 18 19 18 17 16 16 16 17 17 17 17 15 14 14 15 15 15 15 15 15 15 14 14 14 14 13 11 9 9 9 8 8 8 7 7 5 6 10 15 17 13 9 9 12 14 16 15 15 16 17 17 19 20 19 18 19 19 18 17 16 16 17 18 18 19 18 18 18 18 18 19 19 20
22 22 21 20 19 19 20 21 21 19 17 17 18 18 16 14 15 17 17 18 18 17 15 15 15 15 15 15 15 14 13 13 13 13 13 14 14 14 13 12 10 10 9 9 8 7 6 5 4 7 11 9 5 6 5 12 14 16 18 18 18 18 19 19 20 20 20 21 22 21 21 20 19 20 20 20 20 20 19 20 20 21 21 21 22
23 22 21 20 20 18 18 19 19 18 17 16 17 16 15 14 15 17 18 18 17 16 14 14 15 16 15 15 13 11 11 11 11 11 12 13 13 14 13 11 11 11 10 9 8 7 7 5 4 5 7 7 10 8 9 16 19 19 20 20 19 18 18 19 20 21 21 22 23 24 24 23 22 22 22 23 22 22 22 22 22 23 22 22 21
22 21 20 19 18 17 17 18 18 18 17 16 14 13 13 13 14 15 16 16 15 14 13 13 14 14 13 13 13 11 10 10 10 10 12 13 12 12 12 12 11 11 11 11 10 9 8 8 7 6 6 10 13 13 15 18 19 20 20 20 19 16 16 16 17 21 24 24 24 25 26 25 23 23 24 25 24 23 24 24 23 23 22 20 19
19 19 17 16 16 15 15 16 16 15 16 15 13 12 11 12 13 13 13 13 12 11 11 12 12 12 11 13 14 12 10 9 10 10 11 13 13 12 13 13 12 12 12 13 13 12 11 11 9 8 7 9 12 14 15 16 17 18 20 22 20 17 16 15 13 16 22 25 25 26 27 26 24 24 24 24 24 24 25 23 21 20 20 19 18
17 16 14 13 13 13 12 13 13 13 13 13 12 11 12 12 12 12 11 11 9 8 9 9 10 11 11 12 13 12 10 10 10 10 11 12 12 12 12 12 13 13 13 14 14 14 13 13 12 11 10 9 10 13 15 16 17 18 20 22 22 20 19 18 18 18 21 23 25 26 27 26 24 23 23 22 23 24 23 22 20 19 19 19 18
14 14 12 11 12 11 10 11 13 13 12 12 11 10 10 10 10 9 9 9 8 7 6 6 7 10 11 11 11 10 10 10 10 10 11 11 11 10 10 11 12 12 11 12 13 13 14 15 15 15 14 12 10 12 14 17 19 21 21 23 24 24 22 22 25 26 22 20 23 25 24 24 24 23 22 22 23 23 23 22 21 21 20 19 18
12 12 11 11 11 10 10 12 14 13 12 11 9 9 8 7 7 7 7 7 8 8 7 6 8 10 11 12 12 10 9 7 8 8 9 11 12 11 9 8 8 8 7 8 10 11 13 14 15 17 16 15 14 13 13 15 18 20 21 23 24 25 25 25 27 26 21 19 22 22 20 22 24 23 24 24 24 24 24 23 23 22 21 20 19
8 9 9 10 10 10 10 13 14 14 12 10 8 7 6 5 5 5 6 6 7 8 8 8 9 10 12 12 11 10 7 6 6 6 6 8 9 8 6 5 4 3 4 5 6 7 9 10 11 13 13 13 13 13 13 15 18 18 18 19 21 22 24 25 25 25 23 22 23 22 18 19 23 25 25 25 24 24 24 23 22 22 21 21 20
7 6 7 8 9 10 12 13 14 13 11 10 8 6 4 3 3 4 5 6 7 8 9 7 6 8 9 10 10 9 8 7 6 5 4 4 3 3 3 3 3 3 3 4 3 4 6 6 6 7 7 7 7 8 10 12 15 16 16 17 18 18 21 22 20 21 23 22 23 25 21 17 21 26 24 22 21 21 22 22 21 21 21 21 20
11 10 9 8 8 10 13 13 13 13 12 10 8 5 3 2 3 4 6 7 9 10 11 9 5 4 5 6 9 9 8 7 6 4 4 4 4 4 5 6 6 6 6 6 5 4 4 4 4 4 5 5 4 3 5 7 9 11 14 17 17 16 18 17 15 16 21 22 22 26 24 19 20 24 21 17 17 19 20 20 20 19 19 18 17
14 12 10 10 10 11 12 12 12 12 11 9 7 5 3 3 4 6 8 10 11 11 11 9 7 4 4 5 6 6 7 7 6 6 6 6 6 7 8 8 9 9 9 8 8 7 5 5 5 4 4 4 3 1 4 6 7 9 13 16 17 18 19 18 17 15 16 19 21 23 23 19 19 22 20 14 12 15 16 16 16 15 13 13 12
14 11 10 11 12 12 12 11 11 10 9 8 6 4 2 3 5 6 8 9 8 6 4 5 5 6 5 5 5 5 5 5 5 5 5 6 7 8 8 9 10 10 10 9 8 8 7 6 5 5 5 5 4 3 5 7 7 9 11 13 15 18 21 22 19 11 7 11 18 22 23 19 17 21 20 11 5 8 11 11 10 10 9 9 8
Wind_Direction
205 210 218 221 218 221 226 228 227 229 230 233 236 238 242 248 263 278 279 281 284 287 286 277 264 239 246 270 276 278 281 280 282 276 268 263 261 261 257 249 244 247 243 235 229 226 225 223 219 218 217 217 215 215 216 217 217 215 216 219 221 222 221 219 217 217 216 215 217 218 220 221 220 220 219 219 220 223 226 229 232 235 239 242 242
211 217 223 224 220 223 227 227 228 233 238 241 244 246 250 255 268 280 279 277 277 290 297 286 273 250 247 261 269 272 271 275 280 273 265 258 259 266 258 245 241 244 240 234 227 222 223 223 222 223 221 219 218 218 218 218 219 219 218 218 220 222 224 224 222 222 222 220 219 219 221 224 225 228 227 226 226 226 226 227 230 234 240 245 247
213 218 223 224 224 228 230 232 236 237 243 247 247 250 254 261 272 277 282 286 288 304 313 305 295 283 279 265 248 276 278 279 281 275 273 264 258 261 252 233 228 233 234 235 229 220 218 218 221 224 224 222 220 220 220 218 220 222 222 221 221 221 223 226 226 225 225 225 224 223 224 225 227 230 232 233 233 233 230 228 232 237 242 249 253
212 213 219 223 227 235 239 241 244 243 244 246 247 252 256 262 269 267 284 309 306 308 313 306 306 314 315 305 209 270 295 298 286 278 281 274 259 254 248 238 232 230 229 233 231 222 216 215 218 223 225 225 222 221 221 221 221 222 223 224 224 224 223 225 227 228 227 227 228 227 226 227 229 230 232 234 236 239 239 237 238 240 244 252 259
211 214 219 226 234 245 252 251 252 255 255 250 247 250 255 259 264 264 276 309 313 306 301 303 311 324 327 319 209 199 273 297 289 280 277 270 253 245 246 247 247 243 236 236 234 226 220 216 216 220 225 227 225 222 222 223 222 222 223 225 227 227 226 225 226 228 229 229 230 229 229 230 231 233 233 234 236 239 242 243 245 247 250 254 261
212 218 225 235 248 257 260 261 261 262 257 247 239 239 245 253 266 273 273 293 316 314 297 307 316 319 316 318 330 168 180 265 285 290 280 268 250 240 245 246 244 243 240 238 236 229 224 220 217 219 224 227 228 227 226 226 225 224 225 227 229 229 229 229 228 229 229 229 230 230 231 232 232 234 235 235 237 239 240 243 246 250 253 256 261
214 222 231 241 256 263 265 264 259 245 230 223 226 228 230 247 270 284 286 300 315 311 300 318 325 320 311 311 326 328 167 240 275 306 315 284 253 236 242 259 247 238 234 234 233 227 224 223 222 222 223 226 228 229 230 230 229 227 227 229 231 231 230 230 231 232 231 230 230 231 231 233 233 235 236 237 238 239 241 243 246 250 253 255 259
212 220 232 242 246 251 260 255 230 184 180 186 207 221 231 252 273 286 302 323 316 296 300 322 329 324 314 310 319 312 319 314 292 334 346 331 267 235 246 260 251 235 228 229 229 226 225 225 226 226 225 224 226 230 231 231 230 227 227 230 232 232 231 231 232 234 234 233 233 233 233 234 234 235 237 238 239 240 242 244 246 248 251 253 255
209 217 231 237 231 234 249 230 192 173 174 178 200 234 267 263 272 291 311 334 312 291 305 322 327 321 308 314 323 309 328 337 343 7 9 30 23 334 282 255 241 237 230 229 231 232 232 228 230 232 229 226 227 232 234 231 230 228 228 231 233 233 233 232 233 235 236 236 235 235 236 236 235 236 237 238 239 240 242 244 245 247 249 251 253
209 220 230 229 222 223 248 216 202 195 189 193 211 261 295 257 265 305 322 333 307 298 315 318 320 317 304 308 316 307 325 344 8 24 20 20 10 357 353 327 260 265 249 239 234 231 230 226 229 234 233 231 231 234 235 233 233 232 231 231 232 233 233 233 234 235 236 237 237 237 237 238 236 236 237 238 239 240 242 244 246 247 247 249 251
209 220 225 222 215 206 183 181 199 198 187 191 209 271 292 223 236 323 322 324 306 301 307 311 315 315 307 306 312 312 314 330 358 7 5 13 13 359 358 8 360 334 297 265 241 229 228 227 230 232 231 231 231 232 234 234 233 232 233 232 232 233 234 235 235 235 235 236 237 237 237 238 238 238 237 238 239 240 242 244 246 247 246 246 249
212 217 218 218 212 199 185 179 197 201 189 191 215 267 278 216 233 312 308 303 296 294 294 303 309 310 310 310 313 312 307 310 327 342 351 15 28 15 360 357 346 334 316 275 243 235 232 233 235 231 226 226 227 229 232 233 233 233 234 234 233 234 234 235 237 236 236 236 237 237 237 238 238 238 237 238 240 241 242 244 245 246 246 246 247
219 220 217 218 214 203 200 195 203 215 210 206 225 255 271 272 290 296 293 290 289 292 291 294 299 305 315 317 317 314 305 306 315 328 341 7 28 21 6 352 336 325 311 264 236 235 228 230 234 229 223 223 225 227 229 232 234 236 237 236 235 236 236 237 237 237 237 237 237 237 238 238 238 237 237 239 240 241 242 243 244 245 246 246 247
220 221 216 215 215 211 206 200 198 207 211 214 233 252 265 276 286 284 285 290 290 292 288 283 287 302 322 323 327 329 314 310 318 323 336 5 11 4 4 359 346 337 319 223 213 219 215 219 224 223 222 223 225 224 224 228 231 234 236 237 236 236 238 238 239 239 237 236 236 238 237 237 238 237 237 238 239 240 240 242 243 243 245 246 247
219 219 216 214 216 218 213 208 206 211 222 233 247 257 265 270 269 268 284 292 285 279 272 266 269 292 342 329 326 345 330 325 338 329 323 330 328 338 354 0 360 6 39 151 185 204 210 213 217 222 222 221 223 223 224 228 230 230 233 235 235 236 237 238 239 240 238 236 235 237 237 237 238 238 238 238 238 239 239 240 242 241 243 244 245
219 219 218 215 218 221 219 217 217 224 238 249 258 263 264 265 263 266 280 285 278 270 262 258 254 248 289 307 284 12 322 319 344 328 307 294 298 319 334 345 4 20 24 346 323 275 246 235 231 230 225 221 224 228 233 234 230 226 227 230 233 236 237 237 239 241 240 238 237 237 237 237 238 239 239 239 239 239 239 240 241 241 241 243 244
220 222 223 220 219 221 222 223 222 223 236 249 257 261 261 262 267 275 284 284 274 265 258 257 250 239 235 245 352 359 274 298 341 327 306 289 288 308 313 316 342 357 349 332 315 290 275 262 248 239 229 221 223 232 240 243 240 233 226 227 232 237 240 239 240 241 241 240 240 239 237 236 237 238 239 240 240 240 240 240 242 242 241 242 243
218 220 223 223 222 222 223 223 220 222 233 243 245 251 258 262 270 282 292 290 271 256 246 245 249 246 246 253 270 275 267 318 4 325 320 293 278 314 321 318 327 338 354 348 324 294 280 273 264 253 236 223 225 235 242 244 247 247 244 244 245 247 249 247 243 242 243 242 239 237 236 236 236 237 238 240 240 240 240 240 241 243 241 242 243
217 220 220 220 218 217 219 219 219 227 234 236 236 244 255 262 272 281 286 284 264 246 236 241 254 254 250 261 274 271 267 279 225 252 318 288 276 315 328 336 336 339 349 348 332 294 275 273 268 260 243 233 237 241 241 241 244 249 252 255 259 257 260 262 255 247 243 241 239 235 234 234 233 234 235 237 238 239 239 239 241 243 242 242 243
219 221 217 211 209 210 218 222 225 233 240 241 237 239 251 263 273 276 274 264 250 246 250 259 274 277 271 280 289 274 258 260 250 239 216 256 296 312 320 333 339 345 354 350 338 295 275 278 261 249 240 237 238 237 238 239 240 244 249 254 260 263 267 269 266 257 244 240 241 237 233 231 232 233 236 238 239 240 241 241 242 244 244 243 243
220 224 217 210 211 217 225 229 230 237 247 248 240 238 252 265 268 268 265 256 246 249 258 268 277 289 295 301 304 278 256 260 261 247 181 220 290 303 317 329 341 355 359 349 337 320 303 289 252 238 235 232 229 230 236 237 237 242 250 260 268 272 276 272 264 258 247 239 239 238 233 231 232 232 236 239 240 243 244 244 244 244 244 243 242
217 222 218 215 219 226 233 234 232 238 251 252 242 241 254 268 263 258 258 253 250 256 264 274 279 283 291 301 304 280 261 257 243 241 226 232 271 278 293 310 322 329 338 338 322 315 312 296 250 233 229 224 227 236 240 237 239 246 253 266 276 280 281 272 254 248 244 236 233 236 233 228 228 230 234 238 240 242 243 242 243 243 243 243 242
215 217 218 219 223 230 239 237 234 240 252 255 248 243 251 265 260 252 257 259 259 262 267 275 280 278 280 290 299 291 282 275 259 246 229 216 237 269 280 291 292 301 320 325 304 299 294 288 265 233 221 220 226 234 237 233 238 248 260 275 283 285 282 264 243 241 240 232 227 230 230 224 224 230 235 237 237 240 241 240 239 240 241 241 242
214 215 217 220 224 231 237 234 234 240 247 253 253 246 248 257 256 254 260 262 259 261 267 274 276 274 275 279 289 300 302 296 281 264 245 235 234 247 270 289 285 288 307 308 294 284 276 275 266 240 220 222 225 225 228 229 236 248 268 286 289 286 274 242 228 234 229 223 220 224 229 225 225 231 234 235 234 236 239 240 240 240 240 240 242
211 214 216 218 223 230 233 232 235 241 246 249 249 245 246 251 255 259 260 258 255 259 267 272 269 268 274 276 281 292 303 309 299 277 256 242 234 241 263 271 254 271 304 300 285 275 270 263 258 247 228 225 224 224 228 232 242 254 271 288 291 279 253 212 203 225 222 216 214 217 224 225 225 229 231 232 232 233 236 238 240 240 238 240 242
212 215 216 217 221 227 231 234 238 244 247 248 245 243 245 249 253 258 258 256 257 261 265 269 266 266 273 278 282 289 295 304 307 292 265 245 238 245 252 253 253 258 272 275 266 264 265 261 256 251 242 232 225 225 231 237 248 259 274 290 294 274 235 195 186 218 225 209 210 211 217 222 222 222 225 228 232 234 235 236 238 238 238 240 241
223 223 221 221 224 228 231 235 241 246 248 248 247 247 248 249 252 256 259 260 261 261 261 265 269 270 272 278 285 291 296 301 305 301 278 259 258 260 252 230 266 270 256 253 252 254 259 261 258 253 248 241 231 227 234 240 250 261 274 291 302 287 226 191 181 195 205 202 210 210 211 217 217 218 221 225 231 232 232 234 235 235 235 236 237
231 231 230 229 230 230 231 234 241 247 247 246 247 248 249 250 253 258 261 262 260 260 262 266 269 270 273 279 284 287 294 300 304 305 293 273 267 268 258 236 227 264 293 276 255 253 254 249 249 254 251 244 238 231 234 242 248 256 268 288 308 309 235 203 190 190 192 194 205 207 207 210 212 216 220 225 230 228 226 227 229 229 230 231 232
231 233 235 236 233 230 230 233 238 244 246 246 247 250 251 250 254 259 261 261 260 262 266 267 265 267 271 277 283 285 289 299 308 310 302 283 271 270 267 254 236 215 241 284 257 244 238 235 242 253 249 242 240 235 235 239 240 239 246 269 299 315 281 224 206 197 195 194 199 204 206 206 207 211 217 221 225 226 223 221 221 225 228 229 229
231 234 237 236 233 230 230 232 236 240 243 243 245 250 251 251 253 257 260 261 261 264 268 267 264 267 272 275 280 283 285 296 308 310 303 291 280 275 273 265 252 235 230 245 262 254 241 241 250 254 251 246 242 237 237 238 237 234 234 240 261 310 314 263 230 213 205 202 205 210 211 210 209 209 210 214 218 221 222 221 222 226 229 232 233
231 234 235 234 234 234 234 235 237 239 240 241 245 248 248 249 251 255 258 259 260 265 270 269 268 270 274 277 279 280 282 286 292 298 296 293 286 280 280 273 260 248 243 237 249 264 252 251 260 259 253 248 240 234 234 235 237 240 243 246 247 255 276 270 250 232 219 214 217 221 216 211 212 211 211 214 218 220 221 221 223 224 226 228 228
234 234 234 233 233 233 233 234 233 234 237 240 242 242 241 244 248 251 255 257 260 267 274 274 272 273 275 279 278 275 275 276 276 280 282 285 284 282 288 288 274 261 251 239 227 257 259 261 267 260 249 243 237 231 229 230 231 236 242 245 248 246 233 228 237 233 226 222 221 219 214 210 210 213 214 216 216 215 218 216 211 212 217 217 214
237 236 234 233 231 230 231 231 230 232 236 238 238 236 236 239 243 247 251 255 261 269 275 276 274 274 276 278 276 273 271 272 273 273 273 276 280 280 284 294 293 277 258 243 235 253 262 260 257 253 247 239 234 229 229 229 225 228 234 235 239 246 241 231 231 228 225 224 220 214 212 209 209 210 211 214 213 208 210 214 208 207 212 209 205
239 239 238 235 233 233 234 233 233 235 238 238 236 234 236 239 241 243 246 252 260 266 271 274 273 274 277 277 276 274 273 272 271 271 272 275 279 282 285 288 294 304 282 253 243 245 260 259 249 246 244 235 230 230 232 233 228 227 232 233 231 237 242 241 241 238 230 227 223 217 215 214 214 217 218 220 219 213 213 218 220 220 223 223 219
240 241 240 238 234 232 232 232 233 234 237 238 238 238 240 242 242 244 247 252 258 263 267 270 272 274 275 274 274 275 274 275 275 272 270 271 275 281 285 284 281 295 318 287 253 244 253 258 249 242 238 229 226 229 232 235 233 230 235 237 233 232 238 239 242 243 237 232 228 222 221 222 223 226 229 230 232 234 232 232 234 236 238 237 234
240 241 237 232 229 227 226 229 230 233 237 240 241 244 245 245 247 248 251 254 256 260 263 265 269 271 270 270 273 274 272 275 279 276 268 266 271 276 280 279 275 280 298 313 286 258 255 258 251 241 233 224 222 227 230 231 231 232 236 239 235 233 238 239 237 238 236 232 231 228 227 227 228 231 236 238 242 247 245 241 240 241 241 239 236
239 239 233 227 226 227 230 234 236 239 241 240 241 246 248 248 249 249 249 252 253 254 258 262 266 267 265 267 271 271 273 277 280 275 268 264 267 275 279 271 268 278 284 291 302 293 273 267 254 238 226 219 219 223 226 225 226 229 232 236 236 235 238 238 233 230 231 232 231 232 234 235 235 236 239 242 246 247 243 241 241 242 242 243 241
237 238 237 234 232 234 238 242 245 246 242 239 241 246 248 246 244 244 245 249 251 253 256 262 266 265 262 264 267 270 276 280 278 274 270 267 267 276 282 276 273 280 283 285 290 291 291 285 261 238 224 219 217 216 220 224 228 229 227 229 233 233 234 235 230 226 229 233 233 234 237 241 242 241 240 242 243 242 240 240 241 242 243 245 245
238 240 242 241 237 236 240 244 247 246 241 240 242 243 243 242 242 244 246 248 251 253 257 264 267 265 262 263 269 276 279 279 277 274 273 271 268 269 274 281 283 281 282 287 286 280 281 277 257 239 226 219 210 192 200 221 231 234 231 227 226 227 230 232 231 230 232 234 234 235 235 239 243 242 240 240 240 239 240 242 243 244 246 247 247
239 238 238 238 237 237 240 241 241 239 237 238 238 237 238 240 244 247 248 248 250 253 260 268 270 269 268 270 275 281 283 279 276 276 274 271 267 266 268 272 274 273 276 281 280 277 273 259 244 240 229 210 124 103 193 225 231 231 231 232 231 229 228 231 233 235 237 237 236 234 233 233 236 238 237 237 238 239 241 243 246 248 249 250 250
236 232 231 234 237 239 239 235 231 230 232 233 231 232 238 244 247 248 246 245 248 254 261 266 265 262 263 269 277 285 288 282 276 274 272 267 264 264 263 261 263 269 275 279 277 274 272 261 249 243 217 157 110 119 197 223 231 234 235 235 233 230 229 232 235 236 237 238 236 233 232 233 236 238 238 237 238 239 241 245 249 250 251 252 253
232 229 229 233 238 241 239 235 231 229 230 230 226 226 236 244 246 244 242 244 249 256 260 259 259 259 259 267 278 285 284 277 270 266 263 262 261 259 259 258 260 268 275 281 280 275 274 271 265 251 204 167 160 177 200 218 233 241 242 238 233 230 229 234 240 240 237 236 234 233 234 236 239 241 242 241 239 239 242 247 252 252 251 252 254
227 227 231 235 238 240 238 235 231 225 223 225 222 222 231 239 242 240 240 244 248 256 260 261 264 271 273 274 277 279 277 273 270 263 259 262 265 266 266 264 261 264 269 274 277 275 272 269 264 252 224 199 197 205 214 223 231 238 243 242 236 227 222 227 238 242 238 233 230 233 237 238 239 242 245 244 240 240 244 249 254 254 252 253 255
224 223 228 230 228 230 230 226 221 215 215 219 220 223 230 234 236 238 242 245 248 258 266 264 265 272 277 276 273 272 270 268 267 262 258 262 265 266 266 263 259 258 259 262 268 271 270 268 264 257 247 236 220 212 216 223 227 231 237 240 238 229 221 223 230 237 240 235 227 229 237 239 237 240 244 244 241 240 244 247 249 250 252 255 257
219 216 216 213 211 216 222 216 212 211 213 216 219 223 226 228 231 238 245 246 247 256 266 269 272 277 280 279 275 272 268 265 265 265 265 265 262 259 259 260 258 255 254 256 259 262 264 265 265 264 261 257 240 225 227 230 226 222 221 226 235 235 228 229 235 238 242 236 224 223 235 241 238 235 237 239 240 240 240 242 243 245 250 254 256
208 210 206 200 203 213 215 208 207 209 208 207 207 206 207 212 221 229 234 237 239 243 252 267 278 280 278 275 275 274 269 261 260 262 262 262 261 256 255 260 264 264 267 267 261 259 261 260 261 261 260 261 255 245 242 238 231 225 220 222 230 234 235 242 247 246 244 242 232 225 231 240 236 228 229 233 236 237 238 240 241 243 249 254 257
194 204 205 201 206 212 206 202 204 204 199 192 186 185 187 191 205 221 233 241 246 249 253 264 273 275 273 268 265 265 256 241 244 249 251 259 264 262 257 259 267 278 287 281 271 269 270 268 268 266 262 262 263 257 250 245 242 241 238 236 238 239 242 248 251 249 247 246 236 225 226 236 230 221 223 229 230 231 234 236 239 241 246 253 257
163 174 186 192 200 202 199 201 200 193 186 182 176 173 177 192 220 247 261 268 272 269 264 268 280 281 272 256 244 242 239 234 240 251 252 255 261 263 265 266 269 276 284 285 283 284 279 275 281 281 274 273 271 263 254 251 252 252 247 244 244 240 240 245 249 249 249 246 236 225 225 233 225 216 217 221 221 225 230 233 237 241 245 250 256
149 149 151 156 170 187 195 200 196 185 178 178 177 177 190 227 263 285 294 296 297 289 275 270 283 290 266 241 233 237 237 231 230 240 250 257 262 271 280 285 285 281 275 272 274 280 281 278 274 275 282 289 286 263 247 248 256 255 244 241 238 228 225 234 242 245 246 247 241 231 228 231 222 210 206 208 214 221 229 235 239 243 248 251 252
158 154 150 147 151 168 183 191 190 183 180 184 189 200 225 270 293 301 307 307 305 296 278 264 261 253 234 226 224 225 224 220 223 233 245 255 265 274 281 285 285 281 276 271 266 262 262 268 268 262 267 276 273 222 214 223 228 227 227 234 236 226 221 228 237 241 244 248 245 234 229 229 218 202 194 193 206 221 229 235 240 242 244 245 244
167 164 162 156 152 158 167 174 178 181 185 189 196 211 242 293 306 310 317 314 301 287 275 256 237 225 223 224 214 208 214 222 236 251 259 266 270 274 278 279 278 276 275 272 269 268 265 258 253 251 244 243 238 205 201 213 218 215 219 228 234 230 228 232 237 239 242 251 248 235 227 226 213 198 191 178 184 228 230 230 238 239 228 227 229